Date,TemperatureHighF,TemperatureAvgF,TemperatureLowF,DewpointHighF,DewpointAvgF,DewpointLowF,HumidityHigh,HumidityAvg,HumidityLow,PressureMaxIn,PressureMinIn,WindSpeedMaxMPH,WindSpeedAvgMPH,GustSpeedMaxMPH,PrecipitationSumIn
2013-1-17,50,37,32,22,20,17,59,50,33,0.00,40.00,8,5,13,0.00
2013-1-18,57,43,32,25,21,18,56,42,27,0.00,40.00,13,6,19,0.00
2013-1-19,61,38,27,25,19,15,58,47,24,0.00,40.00,17,10,24,0.00
2013-1-20,53,35,25,23,17,13,63,49,30,0.00,40.00,13,6,18,0.00
2013-1-21,55,36,26,21,16,12,63,46,25,0.00,40.00,13,7,22,0.00
2013-1-22,51,35,27,24,19,14,73,53,34,0.00,40.00,11,5,16,0.00
2013-1-23,51,40,32,35,26,19,81,59,36,0.00,40.00,16,5,29,0.00
2013-1-24,51,42,34,37,32,30,91,68,44,0.00,40.00,15,7,26,0.00
2013-1-25,45,43,38,38,36,33,87,78,67,0.00,40.00,20,10,32,0.00
2013-1-26,41,34,29,34,23,18,91,63,40,0.00,40.00,12,5,21,0.00
2013-1-27,42,32,26,25,20,13,82,65,39,0.00,40.00,13,6,19,0.00
2013-1-28,40,34,31,25,23,22,78,64,51,0.00,40.00,12,6,21,0.00
2013-1-29,47,40,36,29,26,24,67,58,51,0.00,40.00,16,8,23,0.00
2013-1-30,50,41,36,33,29,25,68,61,50,0.00,40.00,13,8,21,0.00
2013-1-31,51,39,30,30,28,26,88,66,44,0.00,40.00,12,6,17,0.00
2013-2-1,53,38,28,31,26,23,88,66,34,0.00,40.00,12,6,17,0.00
2013-2-2,52,36,25,29,26,22,88,70,40,0.00,40.00,9,5,13,0.00
2013-2-3,60,43,32,30,24,20,77,51,28,0.00,40.00,12,7,19,0.00
2013-2-4,54,46,40,26,22,19,49,39,30,0.00,40.00,13,6,19,0.00
2013-2-5,46,41,33,27,22,17,74,48,37,0.00,40.00,21,7,33,0.00
2013-2-6,48,39,34,27,23,20,73,55,36,0.00,40.00,14,8,26,0.00
2013-2-7,40,35,30,27,23,18,83,62,46,0.00,40.00,13,5,24,0.00
2013-2-8,38,31,26,24,20,15,86,65,40,0.00,40.00,12,5,19,0.00
2013-2-9,43,31,21,27,21,13,79,66,51,0.00,40.00,10,5,17,0.00
2013-2-10,44,34,25,27,22,17,90,64,37,0.00,40.00,8,4,12,0.00
2013-2-11,49,36,27,28,23,18,81,61,37,0.00,40.00,12,8,20,0.00
2013-2-12,51,39,32,30,27,22,83,64,40,0.00,40.00,12,6,19,0.00
2013-2-13,47,39,32,32,29,27,83,67,51,0.00,40.00,13,6,20,0.00
2013-2-14,54,40,30,35,30,27,89,71,42,0.00,40.00,11,6,16,0.00
2013-2-15,60,42,31,34,31,28,90,68,36,0.00,40.00,11,6,14,0.00
2013-2-16,54,41,30,30,25,19,81,55,36,0.00,40.00,17,9,24,0.00
2013-2-17,45,33,24,24,20,13,83,61,28,0.00,40.00,9,4,12,0.00
2013-2-18,41,32,26,24,21,18,80,64,44,0.00,40.00,8,4,12,0.00
2013-2-19,40,32,26,23,20,18,77,63,45,0.00,40.00,12,5,16,0.00
2013-2-20,41,32,23,23,20,16,81,63,41,0.00,40.00,9,5,13,0.00
2013-2-21,40,32,24,25,22,19,87,68,44,0.00,40.00,14,7,21,0.00
2013-2-22,44,36,28,33,27,20,91,71,55,0.00,40.00,24,12,35,0.00
2013-2-23,37,30,23,25,19,15,88,64,41,0.00,40.00,14,6,24,0.00
2013-2-24,46,33,23,28,21,17,79,63,39,0.00,40.00,16,8,25,0.00
2013-2-25,40,35,27,32,21,11,89,57,37,0.00,40.00,18,8,29,0.00
2013-2-26,47,34,24,21,17,13,80,53,27,0.00,40.00,16,7,24,0.00
2013-2-27,46,39,32,30,21,13,59,47,39,0.00,40.00,15,9,24,0.00
2013-2-28,53,44,39,39,35,27,80,70,52,0.00,40.00,17,10,27,0.00
2013-3-1,62,48,41,36,33,28,79,57,33,0.00,40.00,14,-14,23,0.00
2013-3-2,55,46,39,33,31,27,69,56,37,0.00,40.00,13,8,19,0.00
2013-3-3,42,36,28,31,20,10,80,54,27,0.00,40.00,10,5,17,0.00
2013-3-4,52,34,20,22,18,15,82,54,29,0.00,40.00,8,4,14,0.00
2013-3-5,42,34,28,32,24,17,90,69,54,0.00,40.00,9,3,11,0.00
2013-3-6,41,35,30,32,27,20,93,75,47,0.00,40.00,21,7,34,0.00
2013-3-7,47,37,27,29,23,19,83,59,37,0.00,40.00,9,-29,19,0.00
2013-3-8,44,34,27,32,25,19,89,72,43,0.00,40.00,11,4,16,0.00
2013-3-9,53,38,25,22,19,16,79,51,25,0.00,40.00,10,6,16,0.00
2013-3-10,60,45,30,34,25,18,69,49,22,0.00,40.00,13,8,21,0.00
2013-3-11,57,47,40,36,35,33,83,66,44,0.00,40.00,12,6,17,0.00
2013-3-12,63,49,37,36,30,21,85,56,23,0.00,40.00,14,6,20,0.00
2013-3-13,68,53,44,37,29,23,60,40,32,0.00,40.00,14,6,20,0.00
2013-3-14,66,51,41,35,29,22,63,45,24,0.00,40.00,15,9,26,0.00
2013-3-15,59,48,40,37,32,26,75,56,38,0.00,40.00,10,4,17,0.00
2013-3-16,50,42,31,33,29,25,90,62,42,0.00,40.00,18,9,27,0.00
2013-3-17,42,33,25,28,20,16,86,60,36,0.00,40.00,14,6,19,0.00
2013-3-18,50,37,26,25,19,8,82,53,18,0.00,40.00,10,4,15,0.00
2013-3-19,52,39,30,41,26,19,87,61,37,0.00,40.00,14,4,20,0.00
2013-3-20,46,42,31,39,32,18,83,68,42,0.00,40.00,21,12,35,0.00
2013-3-21,41,32,26,23,18,13,76,56,37,0.00,40.00,16,7,27,0.00
2013-3-22,37,30,25,21,17,12,82,58,38,0.00,40.00,16,7,26,0.00
2013-3-23,43,32,23,20,17,14,77,55,33,0.00,40.00,10,5,15,0.00
2013-3-24,46,36,26,23,21,16,75,56,40,0.00,40.00,11,4,16,0.00
2013-3-25,50,40,31,29,25,22,71,55,43,0.00,40.00,12,4,17,0.00
2013-3-26,48,42,36,37,34,26,88,74,55,0.00,40.00,9,3,17,0.00
2013-3-27,56,43,32,41,35,30,92,75,40,0.00,40.00,19,6,34,0.00
2013-3-28,56,46,41,43,38,32,90,76,39,0.00,40.00,13,4,18,0.00
2013-3-29,60,49,38,42,37,34,92,68,39,0.00,40.00,15,5,19,0.00
2013-3-30,68,52,36,39,35,-100,87,59,31,0.00,40.00,11,6,16,0.00
2013-3-31,64,52,36,42,35,32,87,56,33,0.00,40.00,11,6,17,0.00
2013-4-1,61,51,41,41,38,35,87,61,42,0.00,40.00,13,6,20,0.00
2013-4-2,64,49,39,37,36,34,84,62,37,0.00,40.00,14,6,21,0.00
2013-4-3,67,52,36,37,32,26,89,53,23,0.00,40.00,13,7,20,0.00
2013-4-4,61,52,44,39,35,31,73,53,43,0.00,40.00,21,8,36,0.00
2013-4-5,54,46,42,40,36,32,82,69,43,0.00,40.00,21,10,29,0.00
2013-4-6,52,45,40,37,34,28,86,67,43,0.00,40.00,24,11,35,0.00
2013-4-7,46,41,34,37,29,22,84,65,42,0.00,40.00,22,10,37,0.00
2013-4-8,46,37,29,26,24,21,75,58,44,0.00,40.00,15,7,23,0.00
2013-4-9,57,42,28,34,26,20,79,57,25,0.00,40.00,10,5,17,0.00
2013-4-10,58,49,38,42,35,29,70,59,41,0.00,40.00,17,9,28,0.00
2013-4-11,54,41,29,30,26,23,88,58,33,0.00,40.00,12,5,19,0.00
2013-4-12,62,44,29,34,26,19,80,55,21,0.00,40.00,21,10,33,0.00
2013-4-13,47,40,32,34,24,20,67,53,39,0.00,40.00,19,9,33,0.00
2013-4-14,41,34,27,28,22,18,87,63,46,0.00,40.00,9,5,20,0.00
2013-4-15,39,32,30,32,28,24,92,86,54,0.00,40.00,14,5,22,0.00
2013-4-16,41,34,30,30,26,18,91,72,41,0.00,40.00,12,6,21,0.00
2013-4-17,49,37,25,27,20,14,80,53,28,0.00,40.00,13,6,19,0.00
2013-4-18,58,45,33,36,30,23,71,55,40,0.00,40.00,13,6,21,0.00
2013-4-19,56,48,41,37,34,30,70,59,41,0.00,40.00,19,10,35,0.00
2013-4-20,56,46,35,33,30,26,84,58,32,0.00,40.00,14,6,24,0.00
2013-4-21,60,47,37,36,33,28,77,59,38,0.00,40.00,17,8,26,0.00
2013-4-22,51,43,36,36,26,15,82,54,31,0.00,40.00,15,7,21,0.00
2013-4-23,61,44,27,21,16,12,63,36,16,0.00,40.00,16,7,24,0.00
2013-4-24,67,50,30,26,21,13,59,33,20,0.00,40.00,10,4,17,0.00
2013-4-25,70,55,38,38,29,20,51,38,29,0.00,40.00,14,8,23,0.00
2013-4-26,75,59,43,40,34,30,68,42,22,0.00,40.00,14,7,21,0.00
2013-4-27,70,58,45,39,34,30,60,42,27,0.00,40.00,16,9,24,0.00
2013-4-28,62,53,41,37,33,28,66,47,34,0.00,40.00,18,6,28,0.00
2013-4-29,56,50,37,41,35,24,79,57,39,0.00,40.00,20,10,31,0.00
2013-4-30,49,39,27,25,22,20,81,51,34,0.00,40.00,14,6,24,0.00
2013-5-1,62,44,27,27,22,20,75,46,22,0.00,40.00,11,5,20,0.00
2013-5-2,75,56,34,29,25,22,66,33,16,0.00,40.00,11,5,17,0.00
2013-5-3,67,56,40,37,32,25,62,40,30,0.00,40.00,16,7,26,0.00
2013-5-4,67,57,43,39,34,30,61,43,35,0.00,40.00,22,10,31,0.00
2013-5-5,70,59,49,41,35,30,49,41,34,0.00,40.00,18,9,26,0.00
2013-5-6,77,64,46,44,38,33,62,40,30,0.00,40.00,17,6,32,0.00
2013-5-7,76,63,50,46,43,38,82,52,26,0.00,40.00,17,10,26,0.00
2013-5-8,78,63,50,47,44,39,79,53,25,0.00,40.00,13,7,27,0.00
2013-5-9,81,63,50,48,46,43,83,56,28,0.00,40.00,18,7,30,0.00
2013-5-10,84,66,50,51,43,-100,80,50,25,0.00,40.00,12,8,20,0.00
2013-5-11,87,70,56,53,48,-100,74,50,26,0.00,40.00,15,7,25,0.00
2013-5-12,80,69,59,53,49,45,79,53,31,0.00,40.00,16,7,26,0.00
2013-5-13,70,59,46,49,42,34,81,56,41,0.00,40.00,24,7,39,0.00
2013-5-14,67,52,38,40,37,34,87,59,36,0.00,40.00,12,5,19,0.00
2013-5-15,62,50,41,45,39,36,80,67,41,0.00,40.00,11,5,19,0.00
2013-5-16,59,46,42,45,24,-100,91,76,50,0.00,40.00,16,4,21,0.00
2013-5-17,57,48,42,42,33,-100,90,68,43,0.00,40.00,12,4,21,0.00
2013-5-18,58,46,36,43,35,31,85,66,44,0.00,40.00,15,6,21,0.00
2013-5-19,61,50,38,39,35,32,82,59,36,0.00,40.00,13,7,20,0.00
2013-5-20,76,55,37,41,36,32,82,52,23,0.00,40.00,9,6,16,0.00
2013-5-21,57,48,35,42,32,22,79,54,36,0.00,40.00,21,10,34,0.00
2013-5-22,46,38,32,32,27,22,76,64,54,0.00,40.00,21,11,28,0.00
2013-5-23,56,44,33,32,29,26,78,56,34,0.00,40.00,11,7,19,0.00
2013-5-24,56,47,39,35,32,29,79,58,38,0.00,40.00,14,8,21,0.00
2013-5-25,63,49,34,44,34,30,87,61,34,0.00,40.00,11,5,17,0.00
2013-5-26,60,51,44,45,38,31,92,64,34,0.00,40.00,14,5,23,0.00
2013-5-27,56,49,43,43,38,34,80,66,54,0.00,40.00,18,8,29,0.00
2013-5-28,62,53,44,38,34,31,74,51,32,0.00,40.00,14,8,22,0.00
2013-5-29,56,50,44,45,35,31,89,57,40,0.00,40.00,24,11,34,0.00
2013-5-30,59,48,36,33,31,29,81,54,35,0.00,40.00,13,6,21,0.00
2013-5-31,68,53,34,35,31,27,85,50,23,0.00,40.00,11,5,17,0.00
2013-6-1,75,60,42,44,37,33,75,45,27,0.00,40.00,15,6,26,0.00
2013-6-2,70,57,44,44,38,32,86,53,26,0.00,40.00,15,7,23,0.00
2013-6-3,75,59,40,39,34,28,80,45,24,0.00,40.00,11,6,18,0.00
2013-6-4,77,63,44,39,35,26,61,37,25,0.00,40.00,12,6,17,0.00
2013-6-5,85,70,50,47,43,36,62,40,26,0.00,40.00,14,6,19,0.00
2013-6-6,85,70,54,52,48,44,69,48,28,0.00,40.00,13,6,22,0.00
2013-6-7,81,68,56,51,48,44,78,51,32,0.00,40.00,16,7,22,0.00
2013-6-8,85,69,51,49,43,33,81,45,19,0.00,40.00,14,6,24,0.00
2013-6-9,81,67,53,48,43,35,69,44,24,0.00,40.00,16,6,23,0.00
2013-6-10,76,60,43,40,37,33,70,44,26,0.00,40.00,14,6,21,0.00
2013-6-11,61,52,44,40,37,33,76,56,42,0.00,40.00,14,6,24,0.00
2013-6-12,61,49,36,38,35,31,81,59,41,0.00,40.00,16,6,24,0.00
2013-6-13,55,47,38,42,36,32,82,65,49,0.00,40.00,18,6,25,0.00
2013-6-14,73,55,37,38,35,31,90,52,25,0.00,40.00,9,5,16,0.00
2013-6-15,80,61,43,47,40,32,69,47,24,0.00,40.00,12,6,21,0.00
2013-6-16,79,64,52,55,46,42,73,55,31,0.00,40.00,16,6,21,0.00
2013-6-17,77,62,48,48,45,41,85,56,32,0.00,40.00,14,7,22,0.00
2013-6-18,60,53,48,47,42,37,84,67,45,0.00,40.00,16,6,24,0.00
2013-6-19,59,49,41,42,38,33,90,67,45,0.00,40.00,11,4,18,0.00
2013-6-20,60,46,38,37,35,33,83,67,40,0.00,40.00,11,5,16,0.00
2013-6-21,59,58,56,39,38,38,51,49,46,0.00,40.00,12,9,18,0.00
2013-6-22,75,67,41,43,42,37,85,41,31,0.00,40.00,9,6,17,0.00
2013-6-23,63,58,55,55,50,42,91,74,50,0.00,40.00,9,4,15,0.00
2013-6-24,60,54,48,52,46,42,91,76,52,0.00,40.00,12,5,20,0.00
2013-6-25,63,57,52,48,44,40,82,62,44,0.00,40.00,16,6,26,0.00
2013-6-26,65,59,53,54,49,43,80,70,60,0.00,40.00,9,4,14,0.00
2013-6-27,83,66,49,50,48,45,89,57,31,0.00,40.00,14,6,21,0.00
2013-6-28,90,75,56,56,52,50,82,49,28,0.00,40.00,12,5,21,0.00
2013-6-29,86,76,62,57,54,49,74,48,35,0.00,40.00,14,6,21,0.00
2013-6-30,93,78,59,57,53,51,76,46,29,0.00,40.00,14,6,22,0.00
2013-7-1,96,83,71,60,56,52,51,40,30,0.00,40.00,13,6,21,0.00
2013-7-2,97,83,68,61,57,52,75,44,24,0.00,40.00,14,6,22,0.00
2013-7-3,89,78,65,61,55,44,75,47,33,0.00,40.00,16,6,23,0.00
2013-7-4,81,69,57,46,44,39,61,41,26,0.00,40.00,14,6,22,0.00
2013-7-5,77,64,52,45,40,31,78,45,27,0.00,40.00,12,6,19,0.00
2013-7-6,80,60,44,45,37,31,67,46,25,0.00,40.00,13,4,21,0.00
2013-7-7,84,68,53,50,46,41,64,47,29,0.00,40.00,15,6,22,0.00
2013-7-8,83,63,53,50,44,-100,74,55,25,0.00,40.00,11,6,17,0.00
2013-7-9,87,69,56,53,48,43,63,47,30,0.00,40.00,16,6,21,0.00
2013-7-10,86,71,62,56,47,-100,65,46,31,0.00,40.00,12,6,21,0.00
2013-7-11,79,66,54,50,46,44,67,50,33,0.00,40.00,14,5,22,0.00
2013-7-12,74,59,50,44,42,36,75,55,31,0.00,40.00,12,5,19,0.00
2013-7-13,70,56,45,42,38,33,71,53,28,0.00,40.00,9,4,12,0.00
2013-7-14,84,63,50,48,37,30,51,39,28,0.00,40.00,13,6,24,0.00
2013-7-15,77,60,54,48,44,41,61,55,36,0.00,40.00,8,4,10,0.00
2013-7-16,80,69,63,49,42,37,41,37,33,0.00,40.00,11,7,19,0.00
2013-7-17,81,66,59,49,45,42,62,47,29,0.00,40.00,13,9,20,0.00
2013-7-18,82,66,55,51,46,40,58,49,28,0.00,40.00,11,6,17,0.00
2013-7-19,82,66,56,51,46,41,60,50,25,0.00,40.00,9,5,13,0.00
2013-7-20,71,63,59,51,46,41,57,54,49,0.00,40.00,9,6,14,0.00
2013-7-21,80,64,57,51,46,42,68,55,32,0.00,40.00,13,8,19,0.00
2013-7-22,78,63,57,49,44,42,61,50,29,0.00,40.00,13,8,18,0.00
2013-7-23,80,66,60,53,47,43,63,52,30,0.00,40.00,10,7,16,0.00
2013-7-24,80,68,62,52,47,45,55,47,32,0.00,40.00,9,4,11,0.00
2013-7-25,75,66,61,53,47,45,56,51,42,0.00,40.00,11,6,14,0.00
2013-7-26,74,67,63,49,43,38,44,41,30,0.00,40.00,8,6,12,0.00
2013-7-27,75,64,56,47,42,40,56,47,35,0.00,40.00,9,5,17,0.00
2013-7-28,76,60,53,46,42,39,60,53,34,0.00,40.00,11,6,17,0.00
2013-7-29,76,59,51,49,44,41,71,59,34,0.00,40.00,11,6,17,0.00
2013-7-30,77,62,53,49,46,43,74,58,35,0.00,40.00,9,5,15,0.00
2013-7-31,77,65,59,51,47,43,69,53,36,0.00,40.00,15,5,30,0.00
2013-8-1,72,61,53,53,46,40,88,61,35,0.00,40.00,12,6,20,0.00
2013-8-2,76,60,46,45,41,37,80,54,27,0.00,40.00,12,6,19,0.00
2013-8-3,83,66,48,47,41,37,76,46,23,0.00,40.00,12,6,24,0.00
2013-8-4,87,72,54,50,46,42,69,42,26,0.00,40.00,14,6,22,0.00
2013-8-5,86,72,58,53,47,43,60,43,25,0.00,40.00,12,6,26,0.00
2013-8-6,89,69,57,52,46,41,66,46,26,0.00,40.00,12,7,22,0.00
2013-8-7,83,70,58,48,45,42,57,42,29,0.00,40.00,17,5,30,0.00
2013-8-8,82,68,56,50,46,42,66,46,29,0.00,40.00,12,6,22,0.00
2013-8-9,81,67,59,54,50,46,75,54,33,0.00,40.00,20,6,37,0.00
2013-8-10,74,62,52,51,48,47,81,64,42,0.00,40.00,17,5,22,0.00
2013-8-11,80,64,51,51,47,45,80,58,31,0.00,40.00,14,8,20,0.00
2013-8-12,82,64,53,52,49,46,82,62,32,0.00,40.00,10,6,22,0.00
2013-8-13,86,66,55,50,39,-100,79,50,27,0.00,40.00,11,7,17,0.00
2013-8-14,86,69,58,51,43,-100,64,44,28,0.00,40.00,11,6,20,0.00
2013-8-15,83,57,57,53,27,-100,70,48,26,0.00,40.00,12,6,18,0.00
2013-8-16,82,68,59,57,47,-100,77,55,36,0.00,40.00,12,6,19,0.00
2013-8-17,82,68,58,56,50,-100,83,56,37,0.00,40.00,14,6,22,0.00
2013-8-18,86,71,54,51,49,45,81,49,26,0.00,40.00,12,6,19,0.00
2013-8-19,85,62,56,52,34,-100,75,49,30,0.00,40.00,13,6,21,0.00
2013-8-20,77,62,51,50,40,-100,79,52,24,0.00,40.00,8,4,14,0.00
2013-8-21,77,65,55,47,39,34,46,39,30,0.00,40.00,8,4,14,0.00
2013-8-22,80,66,59,55,47,38,76,52,35,0.00,40.00,21,7,29,0.00
2013-8-23,80,65,55,53,50,47,77,59,36,0.00,40.00,14,9,24,0.00
2013-8-24,77,63,52,53,48,-100,86,63,37,0.00,40.00,13,4,19,0.00
2013-8-25,74,60,52,58,51,48,90,74,48,0.00,40.00,13,4,29,0.00
2013-8-26,74,61,51,49,46,43,90,62,34,0.00,40.00,10,6,21,0.00
2013-8-27,77,58,49,49,46,43,81,65,35,0.00,40.00,11,5,16,0.00
2013-8-28,84,76,66,52,47,43,61,38,26,0.00,40.00,15,8,24,0.00
2013-8-29,80,68,59,53,49,46,74,53,33,0.00,40.00,17,7,27,0.00
2013-8-30,83,67,54,53,50,46,85,57,29,0.00,40.00,14,6,19,0.00
2013-8-31,89,69,52,53,48,-100,84,53,27,0.00,40.00,12,5,17,0.00
2013-9-1,84,67,57,53,48,45,71,52,26,0.00,40.00,14,6,20,0.00
2013-9-2,84,68,55,53,50,44,80,58,25,0.00,40.00,14,6,24,0.00
2013-9-3,82,65,53,51,48,40,85,60,24,0.00,40.00,16,7,22,0.00
2013-9-4,83,64,52,50,47,41,82,58,25,0.00,40.00,17,7,24,0.00
2013-9-5,72,60,53,51,47,42,81,65,45,0.00,40.00,16,6,29,0.00
2013-9-6,69,59,50,48,46,43,85,64,43,0.00,40.00,15,8,22,0.00
2013-9-7,77,61,45,48,44,-100,91,59,34,0.00,40.00,12,6,17,0.00
2013-9-8,74,63,49,50,46,43,83,58,35,0.00,40.00,12,6,20,0.00
2013-9-9,81,66,51,48,44,41,69,47,26,0.00,40.00,13,6,19,0.00
2013-9-10,84,69,53,50,46,42,65,45,29,0.00,40.00,12,7,17,0.00
2013-9-11,87,70,54,53,47,42,66,45,28,0.00,40.00,10,6,16,0.00
2013-9-12,88,72,55,54,47,42,62,43,28,0.00,40.00,9,5,16,0.00
2013-9-13,81,71,59,52,47,41,56,43,32,0.00,40.00,9,5,14,0.00
2013-9-14,87,69,58,54,48,-100,70,50,30,0.00,40.00,11,7,16,0.00
2013-9-15,82,66,56,51,47,40,71,52,31,0.00,40.00,12,6,22,0.00
2013-9-16,69,59,50,48,46,43,80,62,47,0.00,40.00,12,7,19,0.00
2013-9-17,57,51,45,47,43,39,85,73,60,0.00,40.00,14,4,24,0.00
2013-9-18,56,46,41,40,38,34,90,75,43,0.00,40.00,8,4,9,0.00
2013-9-19,77,55,39,42,36,32,79,54,22,0.00,40.00,12,6,18,0.00
2013-9-20,76,56,43,46,38,33,79,54,26,0.00,40.00,15,8,26,0.00
2013-9-21,62,52,45,47,40,-100,88,65,45,0.00,40.00,14,6,21,0.00
2013-9-22,58,50,44,45,41,37,82,70,53,0.00,40.00,21,12,35,0.00
2013-9-23,63,55,50,43,40,36,70,58,44,0.00,40.00,17,8,28,0.00
2013-9-24,53,48,42,45,40,35,90,73,53,0.00,40.00,13,5,22,0.00
2013-9-25,50,43,38,37,35,31,91,72,51,0.00,40.00,16,5,21,0.00
2013-9-26,53,43,33,36,32,29,86,68,47,0.00,40.00,12,6,19,0.00
2013-10-2,48,38,30,33,28,26,89,69,42,0.00,40.00,10,6,14,0.00
2013-10-3,49,40,32,33,29,27,93,69,44,0.00,40.00,8,4,13,0.00
2013-10-4,57,40,31,30,28,25,84,65,28,0.00,40.00,8,6,12,0.00
2013-10-5,74,49,34,32,28,25,67,48,21,0.00,40.00,13,8,21,0.00
2013-10-6,73,54,41,36,31,27,58,44,25,0.00,40.00,15,8,26,0.00
2013-10-7,55,49,43,36,30,26,61,48,42,0.00,40.00,16,7,27,0.00
2013-10-8,49,42,34,37,33,30,90,72,48,0.00,40.00,9,5,17,0.00
2013-10-9,43,38,36,36,33,31,91,81,63,0.00,40.00,11,6,17,0.00
2013-10-10,56,43,35,32,30,28,83,63,37,0.00,40.00,12,6,18,0.00
2013-10-11,52,42,33,33,31,29,85,67,43,0.00,40.00,9,7,15,0.00
2013-10-12,46,39,35,37,29,-100,87,74,57,0.00,40.00,9,4,15,0.00
2013-10-13,50,43,37,38,34,29,91,72,47,0.00,40.00,7,4,10,0.00
2013-10-14,53,41,30,33,28,26,89,65,38,0.00,40.00,9,5,16,0.00
2013-10-15,63,44,28,29,26,23,84,53,27,0.00,40.00,7,4,12,0.00
2013-10-16,65,48,34,31,27,23,63,45,28,0.00,40.00,12,7,18,0.00
2013-10-17,60,46,33,34,30,27,81,56,34,0.00,40.00,9,6,14,0.00
2013-10-18,60,43,33,35,31,28,82,65,37,0.00,40.00,9,5,11,0.00
2013-10-19,74,50,38,34,27,-100,75,48,22,0.00,40.00,13,9,21,0.00
2013-10-20,69,52,38,36,32,28,68,48,30,0.00,40.00,10,7,21,0.00
2013-10-21,69,53,38,39,35,29,71,52,32,0.00,40.00,11,6,13,0.00
2013-10-22,70,51,37,39,35,31,81,58,32,0.00,40.00,9,6,16,0.00
2013-10-23,67,48,38,40,35,32,79,64,36,0.00,40.00,10,6,17,0.00
2013-10-24,67,47,37,39,36,33,86,69,35,0.00,40.00,9,6,14,0.00
2013-10-25,72,52,40,39,35,33,75,56,26,0.00,40.00,11,8,18,0.00
2013-10-26,68,50,39,39,29,-100,73,51,32,0.00,40.00,11,6,19,0.00
2013-10-27,51,40,34,42,34,31,93,81,47,0.00,40.00,19,7,29,0.00
2013-10-28,39,34,32,38,22,-100,93,70,49,0.00,40.00,14,10,24,0.00
2013-10-29,45,34,29,22,17,14,72,51,32,0.00,40.00,7,4,10,0.00
2013-10-30,57,40,31,30,26,23,74,59,30,0.00,40.00,11,8,19,0.00
2013-10-31,62,50,42,42,38,31,78,64,48,0.00,40.00,14,6,17,0.00
2013-11-1,58,45,36,41,37,33,91,74,48,0.00,40.00,14,7,20,0.00
2013-11-2,48,41,32,40,26,-100,82,58,37,0.00,40.00,18,10,30,0.00
2013-11-3,42,36,31,28,25,20,81,66,41,0.00,40.00,12,6,21,0.00
2013-11-4,45,39,34,29,27,24,75,62,43,0.00,40.00,11,6,20,0.00
2013-11-5,51,44,39,40,36,29,80,72,61,0.00,40.00,18,11,27,0.00
2013-11-6,56,49,45,43,42,40,83,74,60,0.00,40.00,15,7,22,0.00
2013-11-7,51,45,38,43,35,23,83,68,43,0.00,40.00,19,8,30,0.00
2013-11-8,46,40,34,29,28,27,77,62,48,0.00,40.00,11,5,17,0.00
2013-11-9,53,38,31,33,25,-100,84,67,39,0.00,40.00,12,5,19,0.00
2013-11-10,63,48,37,38,35,31,88,62,31,0.00,40.00,15,6,21,0.00
2013-11-11,40,37,33,36,33,31,92,86,74,0.00,40.00,5,2,7,0.00
2013-11-12,58,45,37,42,36,32,89,71,44,0.00,40.00,14,5,22,0.00
2013-11-13,59,42,32,35,30,24,91,66,27,0.00,40.00,9,5,13,0.00
2013-11-14,48,37,31,26,23,22,75,58,35,0.00,40.00,13,7,20,0.00
2013-11-15,43,36,29,26,23,21,80,61,45,0.00,40.00,17,9,29,0.00
2013-11-16,45,39,37,27,21,-100,64,53,43,0.00,40.00,21,10,33,0.00
2013-11-17,45,40,36,29,26,24,67,59,49,0.00,40.00,17,11,28,0.00
2013-11-18,50,44,40,36,29,25,79,57,46,0.00,40.00,22,11,35,0.00
2013-11-19,48,44,40,41,37,35,83,78,67,0.00,40.00,22,13,32,0.00
2013-11-20,41,29,21,36,16,-2,89,58,36,0.00,40.00,11,7,18,0.00
2013-11-21,31,22,15,3,0,-5,60,39,28,0.00,40.00,7,4,12,0.00
2013-11-22,35,22,12,10,6,3,70,53,34,0.00,40.00,9,4,13,0.00
2013-11-23,38,24,12,15,8,-100,81,60,38,0.00,40.00,8,4,9,0.00
2013-11-24,59,37,21,18,16,14,74,48,19,0.00,40.00,11,7,21,0.00
2013-11-25,50,35,28,22,19,17,68,52,32,0.00,40.00,10,6,16,0.00
2013-11-26,49,36,25,22,20,18,74,54,34,0.00,40.00,8,4,13,0.00
2013-11-27,44,35,27,25,22,20,77,60,47,0.00,40.00,8,4,9,0.00
2013-11-28,55,34,23,27,23,20,86,66,34,0.00,40.00,8,5,11,0.00
2013-11-29,56,42,31,27,25,22,69,51,32,0.00,40.00,14,6,20,0.00
2013-11-30,54,44,40,35,28,-100,77,59,46,0.00,40.00,15,5,24,0.00
2013-12-1,54,49,45,42,37,32,76,64,51,0.00,40.00,24,15,39,0.00
2013-12-2,49,37,26,36,28,18,89,70,51,0.00,40.00,16,7,32,0.00
2013-12-3,26,21,15,21,14,6,86,72,61,0.00,40.00,14,6,22,0.00
2013-12-4,19,14,5,6,2,-1,76,60,47,0.00,40.00,9,5,14,0.00
2013-12-5,25,14,3,6,3,-2,78,65,44,0.00,40.00,9,5,17,0.00
2013-12-6,12,9,8,6,5,4,87,84,76,0.00,40.00,11,6,20,0.00
2013-12-7,8,2,-6,4,-6,-100,85,75,61,0.00,40.00,13,8,21,0.00
2013-12-8,23,7,-5,6,-1,-10,83,72,46,0.00,40.00,14,9,21,0.00
2013-12-9,32,16,6,18,7,0,76,67,49,0.00,40.00,16,10,27,0.00
2013-12-10,39,28,20,23,17,14,87,64,46,0.00,40.00,15,8,22,0.00
2013-12-11,42,31,20,25,21,17,89,68,48,0.00,40.00,12,8,20,0.00
2013-12-12,43,35,25,29,22,16,78,59,44,0.00,40.00,17,12,31,0.00
2013-12-13,49,37,31,32,30,27,87,74,50,0.00,40.00,14,7,21,0.00
2013-12-14,48,38,32,30,21,-100,85,63,44,0.00,40.00,19,10,26,0.00
2013-12-15,57,44,38,34,26,22,74,50,32,0.00,40.00,16,8,22,0.00
2013-12-16,56,45,32,31,26,23,74,50,32,0.00,40.00,14,8,21,0.00
2013-12-17,58,42,37,28,23,21,52,47,31,0.00,40.00,14,8,19,0.00
2013-12-18,41,37,31,31,26,22,92,64,50,0.00,40.00,9,5,14,0.00
2013-12-19,31,26,19,26,11,7,83,56,38,0.00,40.00,9,4,12,0.00
2013-12-20,44,36,21,35,24,7,73,61,41,0.00,40.00,16,9,24,0.00
2013-12-21,52,41,35,33,27,-100,78,63,39,0.00,40.00,14,6,22,0.00
2013-12-22,53,44,41,36,31,28,71,61,42,0.00,40.00,13,6,21,0.00
2013-12-23,53,44,37,35,29,25,70,55,48,0.00,40.00,19,10,26,0.00
2013-12-24,52,35,29,27,24,22,88,67,31,0.00,40.00,10,5,13,0.00
2013-12-25,50,40,32,26,23,21,70,52,32,0.00,40.00,15,9,22,0.00
2013-12-26,59,43,35,29,23,19,56,46,32,0.00,40.00,14,8,23,0.00
2013-12-27,52,39,35,25,22,20,59,51,35,0.00,40.00,16,10,22,0.00
2013-12-28,47,35,26,23,11,-100,71,45,32,0.00,40.00,9,5,11,0.00
2013-12-29,48,36,25,20,17,15,67,47,30,0.00,40.00,12,9,17,0.00
2013-12-30,45,39,36,23,20,17,49,45,39,0.00,40.00,14,9,20,0.00
2013-12-31,51,44,38,24,22,19,50,43,34,0.00,40.00,11,5,16,0.00
2014-1-1,54,38,31,33,26,20,77,63,45,0.00,40.00,10,6,16,0.00
2014-1-2,61,45,33,33,28,26,75,55,35,0.00,40.00,19,10,29,0.00